Tracking 30970 objects as of 3-Jul-2025
HD Live streaming from Space Station
objects crossing your sky now

ONEWEB-0596

Track ONEWEB-0596 now!
10-day predictions
ONEWEB-0596 is classified as:


NORAD ID: 54662
Int'l Code: 2022-166W
Perigee: 1,183.5 km
Apogee: 1,186.3 km
Inclination: 87.9 °
Period: 108.9 minutes
Semi major axis: 7555 km
RCS: Unknown
Launch date: December 8, 2022
Source: United Kingdom (UK)
Launch site: AIR FORCE EASTERN TEST RANGE (AFETR)
Your satellite tracking list
Your tracking list is empty




NASA's NSSDC Master Catalog

Two Line Element Set (TLE):
1 54662U 22166W   25184.11791026 -.00000064  00000-0 -18650-3 0  9992
2 54662  87.9276 313.6137 0001859  97.8235 262.3110 13.21827568125898
Source of the keplerian elements: AFSPC